Regional Weather Roundup
Issued by NWS

Home | Current Version | Previous Version | Graphics & Text | Print | Product List | Glossary On
Versions: 1 2 3 4 5 6 7 8 9 10 11 12 13 14 15 16 17 18 19 20 21 22 23 24 25 26 27 28 29 30 31 32 33 34 35 36 37 38 39 40 41 42 43 44 45 46 47 48 49 50
000
ASUS43 KTOP 230008
RWRKS

WEATHER ROUNDUP FOR KANSAS
NATIONAL WEATHER SERVICE GOODLAND KS
600 PM CST SUN JAN 22 2017

NOTE:  "FAIR" INDICATES FEW OR NO CLOUDS BELOW 12,000 FEET WITH NO
SIGNIFICANT WEATHER AND/OR OBSTRUCTIONS TO VISIBILITY.

KSZ001>006-013>018-027>032-041>047-230100-
NORTHWEST KANSAS

CITY           SKY/WX    TMP DP  RH WIND       PRES   REMARKS
GOODLAND       CLEAR     38  25  59 W8        29.91R
6HR MIN TEMP:  37; 6HR MAX TEMP:  48;

HAYS           CLEAR     46  26  45 NW6       29.90R
HILL CITY      CLEAR     44  29  55 NW5       29.90R
6HR MIN TEMP:  44; 6HR MAX TEMP:  53;

RUSSELL        CLEAR     41  26  55 NW9       29.88R
6HR MIN TEMP:  41; 6HR MAX TEMP:  52;

$$

KSZ061>065-074>080-084>089-230100-
SOUTHWEST KANSAS

CITY           SKY/WX    TMP DP  RH WIND       PRES   REMARKS
DODGE CITY     CLEAR     41  24  51 NW6       29.92R
6HR MIN TEMP:  41; 6HR MAX TEMP:  53;

ELKHART          N/A     45  21  38 NW7         N/A
GARDEN CITY    CLEAR     41  29  62 N8        29.92R
6HR MIN TEMP:  41; 6HR MAX TEMP:  51;

GREAT BEND     CLEAR     43  30  60 NW8       29.90R
LIBERAL          N/A     45  25  45 NW6       29.94S
PRATT          CLEAR     40  27  57 N8        29.90R
6HR MIN TEMP:  40; 6HR MAX TEMP:  51;

$$

KSZ066>073-081>083-090>101-230100-
SOUTHEAST KANSAS

CITY           SKY/WX    TMP DP  RH WIND       PRES   REMARKS
CHANUTE        CLOUDY    38  32  79 N18       29.83R WCI  28
6HR MIN TEMP:  38; 6HR MAX TEMP:  51;

COFFEYVILLE    CLEAR     45  35  68 N18G26    29.80R
6HR MIN TEMP:  45; 6HR MAX TEMP:  56;

HUTCHINSON     CLEAR     47  27  45 N12       29.87R
6HR MIN TEMP:  47; 6HR MAX TEMP:  54;

MEDICINE LODGE   N/A     46  26  45 NW8       29.89R
NEWTON         CLEAR     41  32  70 N13       29.86R
PARSONS        CLEAR     40  33  76 N15G25    29.82R WCI  32
6HR MIN TEMP:  40; 6HR MAX TEMP:  54;

WICHITA INTL   CLEAR     48  30  49 N16       29.85R
6HR MIN TEMP:  48; 6HR MAX TEMP:  54;

WICHITA JABRA  CLEAR     44  31  60 N15       29.85R
6HR MIN TEMP:  44; 6HR MAX TEMP:  52;

WICHITA MCCONL CLEAR     47  29  50 N17G26    29.84R
WINFIELD       CLEAR     47  31  53 N14       29.85R
6HR MIN TEMP:  46; 6HR MAX TEMP:  55;

$$

KSZ007>012-019>026-033>040-048>060-102>105-230100-
NORTHEAST KANSAS

CITY           SKY/WX    TMP DP  RH WIND       PRES   REMARKS
CONCORDIA      CLEAR     40  32  73 N5        29.87R
6HR MIN TEMP:  40; 6HR MAX TEMP:  46;

EMPORIA        PTCLDY    36  31  82 NW10      29.84R WCI  28
6HR MIN TEMP:  36; 6HR MAX TEMP:  51;

LAWRENCE       CLOUDY    39  35  86 NW13      29.84R WCI  31
6HR MIN TEMP:  35; 6HR MAX TEMP:  40;

MANHATTAN      CLEAR     38  31  76 CALM      29.88R
6HR MIN TEMP:  38; 6HR MAX TEMP:  45;

MARYSVILLE     CLEAR     34  32  93 NW8       29.88R
OLATHE IND     CLOUDY    37  34  89 NW9       29.81R
6HR MIN TEMP:  34; 6HR MAX TEMP:  43;

OLATHE EXE     CLOUDY    37  33  85 N12       29.80R WCI  29
6HR MIN TEMP:  34; 6HR MAX TEMP:  43;

SALINA         CLEAR     41  30  65 N7        29.89R
TOPEKA BILLARD CLOUDY    41  34  76 NW10      29.84R
6HR MIN TEMP:  36; 6HR MAX TEMP:  41;

TOPEKA FORBES  CLOUDY    41  33  73 N14       29.83R
6HR MIN TEMP:  37; 6HR MAX TEMP:  42;

$$



USA.gov is the U.S. government's official web portal to all federal, state and local government web resources and services.